Temp_Advection
nan nan nan nan nan nan nan nan nan nan nan nan nan nan nan nan nan nan nan nan nan nan nan nan nan nan nan nan nan nan nan nan nan nan nan nan nan nan
nan 0 0 -0 -0 0 0 0 1 2 0 -2 -1 -1 -1 -1 -1 -0 -1 -1 -1 -1 0 0 -1 -1 -1 -0 -0 -0 -0 -0 -0 -0 -0 -1 -1 nan
nan 0 0 0 -0 -0 -0 -0 0 1 0 -1 -1 -0 -1 -1 -1 -1 -0 -0 -0 -0 -0 0 -0 -1 -1 -1 -0 -0 -0 -0 -0 -0 -0 -0 -1 nan
nan 0 0 0 -0 -0 -0 -0 -0 0 0 -1 -1 -1 -0 -1 -1 -1 -0 -0 -0 -0 -0 -0 0 -0 -1 -1 -0 0 0 -0 -0 -0 -1 -0 -0 nan
nan 0 0 0 -0 -0 -0 -0 -0 -0 0 -0 -1 -0 -0 -0 -1 -1 -1 -0 -0 -0 -0 -0 -0 -0 0 -0 -0 -0 0 -0 -0 0 -1 -1 -0 nan
nan 0 0 0 -0 -0 -0 -0 -0 -0 -0 -0 -0 -0 -0 -0 -0 -1 -1 -1 -0 -1 -1 -0 -0 -0 -0 -0 0 -0 -0 -0 -0 0 0 -0 -1 nan
nan 0 0 0 0 0 0 -0 -0 -0 -0 -0 -0 -0 0 -0 -0 -0 -1 -1 -1 -1 -1 -0 -0 -1 -0 0 0 -0 -0 -0 -0 -0 0 0 -0 nan
nan -0 -0 -0 0 0 1 0 -0 -0 -0 -0 -0 -0 -0 -0 -0 -0 -0 -0 -1 -1 -1 -1 -0 -1 -0 0 0 -0 -0 -0 -0 -0 -0 0 -0 nan
nan -0 -0 -0 -0 -0 -0 0 0 0 0 -0 -0 -0 -0 -0 -0 0 0 -0 -1 -0 -0 -1 -0 -1 -1 0 0 -0 -0 -0 -0 -0 0 -0 -0 nan
nan -0 -0 -0 -0 -0 -0 -0 -0 -0 0 0 -0 -0 -1 -1 -1 -1 0 -0 -1 -0 -0 -1 -1 -1 -1 -0 0 -0 -0 -0 -0 -0 0 0 0 nan
nan -0 -0 -0 -0 -0 -0 -0 -0 -0 -0 -0 -0 -0 -0 -0 -0 -1 -1 -0 -1 -1 -0 -1 -1 -1 -1 -0 -0 -0 -0 -0 -0 0 0 0 -0 nan
nan -0 -0 -0 -0 -0 -0 -0 -0 -0 -0 -0 -0 -0 -0 -0 0 -0 -1 -0 -0 -1 -0 0 -0 -0 -1 -1 -0 -0 -0 -0 -0 0 0 0 -0 nan
nan -0 -0 -0 0 -0 -0 -0 -0 -0 -0 -0 -0 -1 -0 -0 -0 -0 -0 -1 -0 -0 -0 0 -0 -0 -0 -1 -1 -0 -0 -0 0 0 0 -0 -0 nan
nan -0 -0 -0 -0 0 0 -0 -0 -0 -0 -1 -0 -1 -1 -1 -0 -0 -0 -0 -0 -0 -0 0 -0 -0 0 -0 -1 -1 -0 0 -0 0 0 -0 -0 nan
nan -0 -0 -0 -0 -0 0 0 -0 -0 -0 -0 -1 -1 -1 -1 -1 -0 -0 -1 -1 -1 -0 0 -0 -0 -0 -0 -0 -1 -1 -0 0 0 0 -0 -0 nan
nan -0 -0 -0 -0 -0 -0 0 0 0 -0 -0 -0 -0 -0 -1 -1 -1 -1 -1 -1 -2 -1 0 0 -0 -0 -0 -0 0 0 -1 -1 0 0 0 -0 nan
nan -0 -0 -0 -0 -0 -0 -0 -0 0 0 -0 0 0 0 -0 -0 -1 -0 -1 -1 -1 -2 -1 0 -0 -0 -0 -0 0 -0 -0 -0 0 -0 -1 -0 nan
nan -0 -0 -1 -1 -1 -1 -1 -1 -0 0 0 -0 0 0 -0 -0 -0 -0 -0 -0 -1 -1 -1 -0 -0 -1 -0 0 -0 0 0 0 0 -0 -1 -1 nan
nan -0 -0 -1 -1 -0 -0 -1 -1 -0 -0 0 0 0 0 -0 -0 -0 -0 -0 -0 -0 -1 -1 -0 -0 -0 -1 -0 0 -0 0 0 -0 -0 -0 -1 nan
nan -0 -0 -0 -0 -0 0 -0 -0 -0 -1 -0 0 0 0 -0 -0 -0 -0 0 -0 -0 -1 -1 -1 -0 -0 -0 -0 0 0 -0 -0 -0 -0 -0 -0 nan
nan -0 -0 0 -0 -0 -0 -0 -0 -0 -0 -0 -0 0 0 0 -0 -0 -0 0 -0 -0 -0 -1 -1 -0 -0 -0 -1 -1 0 1 0 -0 -0 -0 -0 nan
nan -0 -0 -0 -0 -0 -0 -0 -0 -0 -0 -0 0 0 0 0 -0 -0 -0 0 -0 -0 -0 -0 -0 -0 -1 -1 -0 -0 -1 -0 0 0 0 -0 -0 nan
nan nan nan nan nan nan nan nan nan nan nan nan nan nan nan nan nan nan nan nan nan nan nan nan nan nan nan nan nan nan nan nan nan nan nan nan nan nan
Wind_Speed
20 20 22 22 23 24 24 25 28 30 31 32 29 33 31 31 30 29 30 30 31 31 31 30 27 25 26 26 25 24 24 25 25 23 24 24 24 26
21 22 23 23 24 25 25 26 26 29 29 35 36 35 33 32 31 28 27 26 27 28 30 28 26 26 25 26 26 24 24 24 24 24 26 27 27 25
22 23 23 24 25 25 26 26 27 27 34 39 36 35 34 33 31 29 28 28 30 30 28 27 26 27 27 28 26 25 23 23 24 25 25 27 27 27
23 23 24 24 25 26 26 27 27 27 30 37 36 37 37 34 32 29 28 27 29 27 26 27 27 27 27 26 27 26 25 25 25 26 25 28 26 26
22 23 24 25 26 27 27 28 29 29 30 34 41 39 38 34 32 31 29 29 28 29 28 27 26 25 26 26 26 26 28 27 29 25 25 26 28 24
22 23 24 25 26 27 28 29 29 31 34 37 39 40 36 29 27 33 36 33 35 32 31 28 26 25 24 27 28 30 30 32 31 29 27 24 25 25
23 24 24 25 26 27 24 26 28 28 30 33 37 34 34 32 35 37 38 39 35 32 32 28 29 27 24 24 23 25 28 30 30 29 28 25 25 25
24 25 25 26 26 25 26 24 21 24 28 31 35 37 39 37 34 35 37 38 41 32 30 35 31 34 29 25 22 23 25 27 28 27 27 27 25 27
24 25 25 23 24 25 25 22 24 25 26 31 36 37 39 37 36 36 33 36 39 38 36 39 33 36 32 27 23 25 25 26 26 27 26 25 24 24
21 22 22 24 24 25 25 29 29 30 33 30 29 33 35 36 38 38 38 39 38 35 28 33 36 36 31 27 23 22 23 24 24 24 23 22 20 20
21 20 22 25 24 22 25 30 34 35 30 25 30 32 33 33 33 33 33 34 38 33 30 28 32 29 26 27 25 21 18 18 21 21 21 18 19 20
22 24 24 24 21 22 26 29 32 30 29 32 34 31 28 27 23 20 25 29 30 34 23 20 25 26 29 28 21 13 14 18 15 16 16 14 17 21
24 25 24 22 20 24 22 26 25 28 31 31 29 27 26 25 24 21 22 24 28 29 27 25 29 29 28 31 30 24 21 18 16 15 16 17 20 20
23 25 24 22 26 23 23 22 23 25 27 26 27 28 28 27 25 24 23 23 24 28 27 26 29 29 28 30 34 33 24 19 18 18 22 22 21 20
22 23 24 26 25 23 21 20 20 23 25 26 28 29 28 28 27 26 23 23 26 24 24 26 26 27 27 30 32 31 27 23 20 18 18 22 22 20
23 26 26 26 23 21 20 20 21 23 22 26 27 27 28 28 27 28 29 26 27 27 24 21 19 22 26 28 28 28 24 23 22 20 21 21 21 22
22 24 24 22 21 21 22 22 24 23 25 25 27 29 30 28 27 27 27 31 27 27 26 22 18 19 21 24 28 25 25 27 26 22 21 25 23 21
22 22 21 21 22 22 22 24 24 24 25 24 26 29 30 31 31 28 27 29 29 26 23 24 18 18 21 21 23 26 26 25 24 23 22 23 25 19
20 21 21 22 22 22 22 24 26 26 26 24 26 29 32 34 33 32 30 32 30 28 25 24 20 19 21 26 27 23 24 23 19 17 17 18 24 22
19 20 21 21 23 23 24 25 26 27 27 26 29 30 34 38 36 34 31 31 30 30 28 25 21 19 21 22 24 24 22 23 23 22 19 19 22 21
21 21 20 21 23 24 25 25 25 27 27 27 31 32 35 40 37 33 31 30 27 28 27 26 24 21 20 20 23 22 17 18 20 21 19 19 20 21
21 21 21 22 23 25 26 25 25 28 29 27 32 32 37 41 38 34 30 31 30 28 26 23 21 21 21 22 24 24 23 18 15 17 17 18 21 24
22 23 24 24 23 25 27 26 25 28 28 28 32 33 39 41 37 32 29 28 29 26 23 21 20 18 20 19 19 21 21 21 20 16 18 18 20 23
Wind_Direction
311 309 306 306 305 304 305 307 311 311 311 317 315 318 313 311 311 312 309 305 302 300 300 297 291 283 284 289 294 294 295 296 297 299 300 301 303 302
309 306 305 306 304 304 307 307 307 306 304 307 313 314 315 313 314 314 310 306 303 302 303 300 293 287 283 284 290 290 292 293 294 292 297 300 296 297
306 304 306 306 306 308 309 308 306 306 304 307 310 313 315 316 315 314 311 307 308 308 303 300 298 287 280 280 283 285 290 289 288 289 293 293 297 294
305 305 306 307 308 309 309 308 308 309 307 310 311 314 315 317 316 313 314 313 310 312 307 299 296 293 285 278 277 276 287 289 285 286 286 292 296 294
306 307 307 309 310 311 310 310 312 312 310 308 308 313 315 316 315 313 315 314 314 316 313 308 302 290 281 275 275 277 284 285 285 285 285 287 288 290
307 305 307 308 309 311 314 314 313 309 307 307 308 309 310 310 305 312 314 316 315 313 311 309 308 301 297 281 274 271 278 286 283 279 284 286 285 282
306 307 307 308 309 309 309 305 304 308 307 308 308 304 304 304 305 309 304 306 308 309 309 313 312 309 301 297 277 272 278 282 280 277 276 279 283 282
308 308 308 310 312 312 309 308 306 307 305 306 305 304 305 308 309 311 302 301 300 306 307 308 314 312 307 302 292 288 286 283 277 273 272 274 279 278
308 309 314 316 315 311 312 319 316 314 305 303 298 299 304 306 307 306 305 299 297 300 299 298 303 306 308 300 297 283 284 284 277 270 267 272 273 280
312 316 320 320 321 320 322 315 316 309 311 313 306 305 303 305 302 300 301 299 298 299 301 287 299 299 304 298 293 287 285 283 276 267 264 268 274 281
319 326 327 326 325 324 314 312 310 309 312 308 306 306 304 300 290 290 290 292 294 292 291 295 295 301 301 298 298 288 287 284 274 262 259 262 275 285
330 330 328 324 321 319 315 313 311 321 324 313 308 307 308 314 304 287 289 295 291 294 292 285 293 298 297 302 304 284 269 288 287 266 251 261 287 292
323 320 323 326 322 316 317 308 320 319 309 310 313 316 321 323 322 300 290 296 295 288 286 288 290 292 288 292 291 290 285 285 281 277 245 279 289 288
316 319 324 320 318 320 320 322 318 313 313 317 320 323 325 326 324 319 304 294 289 283 285 283 281 281 283 286 290 293 283 283 284 267 269 276 280 281
320 321 316 320 323 321 320 322 325 328 332 334 322 321 322 322 324 324 314 308 291 287 286 284 281 278 276 281 281 287 287 286 283 277 272 278 273 269
322 317 315 315 313 313 319 325 329 333 332 326 331 326 326 325 321 326 326 317 314 295 283 287 286 277 276 276 273 277 280 284 283 274 272 275 270 273
316 315 320 322 326 329 330 331 333 333 332 329 336 337 333 326 322 322 324 325 315 310 289 286 287 285 280 275 266 269 280 285 285 282 270 269 271 266
326 327 331 334 333 330 328 327 333 333 335 333 337 339 335 336 332 326 323 324 317 311 300 290 297 292 286 281 266 276 281 286 287 281 275 271 271 268
330 337 334 333 334 330 328 327 330 335 335 334 337 336 338 340 336 332 329 325 318 312 302 282 289 289 287 283 286 283 280 286 290 277 265 263 278 283
334 335 337 332 330 329 331 331 332 334 335 337 337 337 342 340 335 331 327 324 318 313 304 298 282 284 284 289 297 288 279 281 280 274 269 271 275 280
329 325 326 329 334 334 331 330 331 334 333 333 339 338 338 336 333 330 327 323 315 311 301 291 284 279 287 286 279 283 283 285 282 273 269 269 272 275
336 330 326 327 328 333 333 329 329 333 335 335 338 338 338 334 334 330 327 328 325 319 308 295 295 283 279 279 266 277 284 288 281 255 252 256 263 268
338 337 332 328 327 326 330 332 330 333 334 335 339 338 336 334 333 329 327 327 329 322 315 304 300 284 272 284 275 275 282 289 289 275 265 267 264 267
Height
1540 1538 1535 1533 1531 1528 1525 1522 1517 1506 1502 1502 1501 1501 1498 1494 1491 1488 1484 1481 1478 1475 1472 1470 1469 1469 1468 1466 1464 1462 1460 1458 1455 1454 1452 1450 1448 1446
1535 1533 1531 1528 1525 1523 1520 1518 1514 1509 1500 1498 1495 1492 1490 1487 1485 1482 1478 1475 1472 1469 1466 1463 1462 1461 1461 1459 1457 1455 1454 1452 1450 1448 1446 1444 1442 1440
1531 1528 1526 1522 1519 1517 1514 1511 1507 1504 1495 1489 1489 1485 1482 1480 1478 1475 1472 1468 1465 1462 1459 1456 1454 1452 1452 1452 1451 1449 1447 1445 1444 1442 1440 1437 1435 1434
1526 1523 1520 1517 1514 1511 1508 1505 1501 1498 1492 1483 1482 1479 1477 1474 1471 1468 1465 1462 1459 1456 1452 1450 1447 1445 1443 1443 1443 1442 1440 1438 1436 1434 1433 1431 1429 1427
1520 1517 1514 1511 1508 1505 1502 1497 1494 1490 1486 1481 1473 1473 1470 1468 1464 1461 1458 1455 1452 1449 1446 1443 1440 1437 1435 1435 1434 1433 1432 1430 1428 1427 1425 1424 1423 1421
1514 1512 1509 1506 1503 1499 1495 1491 1487 1483 1480 1475 1469 1466 1465 1462 1459 1454 1449 1448 1444 1442 1439 1436 1433 1430 1428 1426 1426 1425 1424 1422 1420 1419 1418 1417 1416 1415
1509 1508 1504 1501 1498 1494 1490 1486 1483 1478 1474 1470 1465 1461 1459 1456 1454 1449 1444 1440 1436 1436 1431 1429 1426 1424 1421 1418 1417 1416 1415 1414 1412 1411 1411 1411 1409 1408
1504 1502 1499 1495 1491 1488 1485 1482 1480 1475 1470 1465 1461 1456 1452 1450 1446 1442 1437 1434 1427 1429 1425 1421 1420 1415 1414 1412 1410 1409 1408 1406 1405 1404 1403 1403 1402 1401
1499 1496 1492 1488 1485 1482 1480 1476 1473 1470 1467 1463 1455 1452 1445 1444 1440 1435 1431 1427 1422 1420 1420 1413 1413 1409 1407 1405 1402 1402 1400 1399 1398 1397 1397 1397 1396 1395
1494 1491 1486 1483 1480 1477 1474 1469 1466 1462 1460 1455 1450 1445 1441 1436 1433 1428 1423 1419 1414 1412 1414 1407 1405 1402 1400 1397 1396 1395 1394 1392 1391 1390 1390 1390 1390 1389
1489 1486 1482 1479 1477 1474 1470 1464 1459 1455 1452 1448 1444 1440 1434 1430 1426 1422 1417 1414 1406 1405 1406 1402 1398 1396 1394 1390 1389 1389 1388 1386 1384 1383 1384 1384 1384 1383
1484 1481 1479 1477 1473 1470 1466 1459 1453 1449 1444 1440 1436 1432 1428 1422 1417 1415 1411 1407 1404 1397 1398 1397 1394 1392 1387 1384 1383 1383 1383 1381 1379 1378 1379 1379 1379 1377
1480 1477 1475 1472 1469 1465 1461 1455 1450 1446 1439 1435 1429 1424 1420 1415 1411 1408 1405 1402 1398 1394 1394 1392 1388 1386 1384 1379 1378 1378 1378 1376 1375 1375 1375 1375 1374 1373
1477 1475 1471 1467 1463 1458 1454 1450 1447 1442 1435 1429 1424 1418 1413 1409 1405 1401 1397 1394 1391 1388 1386 1386 1382 1381 1378 1375 1371 1371 1372 1371 1370 1370 1370 1370 1370 1368
1475 1470 1466 1462 1458 1454 1450 1446 1442 1437 1431 1425 1420 1415 1410 1404 1399 1394 1391 1387 1383 1381 1380 1378 1376 1374 1372 1369 1367 1365 1364 1364 1364 1364 1364 1364 1363 1362
1471 1466 1462 1458 1454 1450 1446 1442 1438 1433 1428 1423 1417 1411 1405 1400 1395 1390 1385 1381 1376 1372 1373 1371 1369 1367 1364 1363 1361 1359 1359 1358 1358 1358 1357 1357 1357 1357
1467 1462 1457 1453 1448 1444 1441 1437 1434 1429 1424 1419 1413 1407 1402 1396 1391 1386 1381 1376 1372 1367 1364 1363 1362 1360 1358 1356 1354 1353 1353 1352 1352 1351 1351 1349 1349 1350
1463 1458 1454 1450 1446 1442 1438 1434 1430 1425 1420 1415 1410 1404 1399 1392 1386 1381 1377 1372 1366 1362 1358 1356 1355 1353 1351 1349 1349 1347 1347 1346 1345 1345 1345 1343 1341 1345
1460 1456 1452 1448 1444 1440 1436 1431 1426 1421 1417 1412 1406 1401 1395 1388 1382 1375 1370 1366 1360 1356 1353 1351 1350 1349 1346 1343 1342 1343 1342 1341 1341 1339 1339 1338 1337 1337
1458 1454 1450 1447 1443 1437 1432 1427 1422 1418 1413 1408 1403 1397 1391 1384 1377 1371 1366 1360 1355 1350 1346 1344 1343 1343 1341 1339 1336 1335 1336 1335 1334 1333 1334 1333 1332 1331
1454 1451 1448 1445 1440 1434 1429 1424 1419 1414 1409 1404 1398 1393 1386 1380 1372 1366 1360 1356 1351 1345 1340 1337 1336 1337 1336 1334 1331 1329 1330 1330 1328 1327 1327 1327 1326 1325
1452 1448 1445 1441 1436 1431 1426 1421 1416 1411 1405 1400 1394 1388 1382 1375 1368 1361 1356 1350 1344 1339 1334 1331 1330 1330 1329 1327 1326 1324 1323 1323 1322 1321 1321 1321 1321 1319
1450 1445 1441 1436 1432 1427 1422 1417 1412 1407 1401 1396 1390 1384 1378 1370 1364 1357 1351 1345 1340 1334 1329 1326 1325 1323 1322 1322 1321 1320 1319 1317 1316 1316 1315 1315 1315 1314